This demonstration page uses our WeatherBlox Daily Observations layout. Learn more.

Left ArrowRight Arrow

39.51506, -84.39828

Hourly Observations for December 6, 2021

Temp ( °F °C ) Dew Point ( °F °C ) Humidity (%) Winds ( mph kmh ) Pressure ( in mb ) Visibility ( mi km ) Precip ( " mm )
12:15 am 00:15 Cloudy with Light Rain 60 15.3 58 14.2 93 93 SW 13 20 29.73 1007 10 16 N/A
12:35 am 00:35 Cloudy with Rain 58 14.6 56 13.6 94 94 SW 20 31 29.71 1006 4 6 0.02 0.51
12:55 am 00:55 Cloudy with Nearby Thunderstorms 58 14.3 56 13.3 94 94 WSW 22 35 29.70 1006 5 8 0.03 0.76
1:15 am 01:15 Cloudy with Mist and Fog 55 13 54 12.2 95 95 SW 16 26 29.69 1005 7 11 0.01 0.25
1:35 am 01:35 Cloudy with Light Rain 57 13.8 56 13.3 97 97 SW 16 26 29.69 1005 5 8 0.02 0.51
1:55 am 01:55 Cloudy with Rain 57 13.7 55 13 96 96 WSW 12 19 29.67 1005 7 11 0.02 0.51
2:15 am 02:15 Cloudy with Heavy Rain 56 13.6 56 13.3 98 98 SW 15 24 29.68 1005 4 6 0.01 0.25
2:35 am 02:35 Cloudy with Mist and Fog 56 13.5 56 13.5 100 100 WSW 13 20 29.69 1005 2 3 0.01 0.25
2:55 am 02:55 Cloudy with Heavy Rain 56 13.3 56 13.1 99 99 SW 10 17 29.69 1005 4 6 0.02 0.51
3:15 am 03:15 Cloudy with Heavy Rain 56 13.2 56 13.1 99 99 WSW 17 28 29.69 1005 4 6 N/A
3:35 am 03:35 Cloudy with Rain 56 13.6 56 13.2 97 97 WSW 13 20 29.69 1005 7 11 0.01 0.25
3:55 am 03:55 Cloudy with Rain 57 13.8 56 13.4 97 97 W 13 20 29.69 1005 7 11 0.01 0.25
4:15 am 04:15 Cloudy with Rain 56 13.6 56 13.2 97 97 W 7 11 29.69 1005 7 11 0.01 0.25
4:35 am 04:35 Cloudy with Nearby Thunderstorms 56 13.2 55 12.9 98 98 WSW 6 9 29.68 1005 7 11 0.02 0.51
4:55 am 04:55 Cloudy with Light Rain 55 12.9 55 12.7 99 99 SSE 5 7 29.65 1004 4 6 0.02 0.51
5:15 am 05:15 Cloudy with Light Rain 55 13 55 13 100 100 SSW 8 13 29.66 1004 10 16 0.01 0.25
5:35 am 05:35 Cloudy with Light Rain 55 12.9 55 12.9 100 100 W 6 9 29.67 1005 7 11 0.01 0.25
5:55 am 05:55 Cloudy with Rain 55 13 N/A N/A SW 10 17 29.67 1005 10 16 0.02 0.51
6:15 am 06:15 Cloudy 54 12.1 52 11 93 93 NW 12 19 29.69 1006 10 16 0.01 0.25
6:35 am 06:35 Cloudy 52 10.9 49 9.2 89 89 WNW 21 33 29.72 1006 10 16 0.02 0.51
6:55 am 06:55 Cloudy 49 9.2 46 7.6 90 90 NW 20 31 29.76 1008 10 16 0.03 0.76
7:15 am 07:15 Cloudy with Drizzle 46 7.9 38 3.4 73 73 NNW 22 35 29.78 1009 10 16 0.01 0.25
7:35 am 07:35 Cloudy with Light Rain 44 6.9 38 3.2 78 78 NW 13 20 29.82 1010 10 16 0.02 0.51
7:55 am 07:55 Cloudy with Light Rain 43 6.1 35 1.9 75 75 NW 12 19 29.82 1010 10 16 0.02 0.51
8:15 am 08:15 Cloudy 43 5.9 35 1.6 74 74 WNW 17 28 29.84 1010 10 16 N/A
8:35 am 08:35 Cloudy 42 5.3 33 0.8 73 73 NW 16 26 29.85 1011 10 16 0.01 0.25
8:55 am 08:55 Cloudy with Light Rain 41 5.2 34 1.1 75 75 NW 10 17 29.86 1011 10 16 0.01 0.25
9:15 am 09:15 Mostly Cloudy 41 4.8 33 0.3 73 73 WNW 13 20 29.88 1012 10 16 N/A
9:35 am 09:35 Partly Cloudy 40 4.5 30 -1.2 67 67 NW 20 31 29.92 1013 10 16 N/A
9:55 am 09:55 Partly Cloudy 40 4.5 31 -0.8 69 69 WNW 16 26 29.93 1014 10 16 0.01 0.25
10:15 am 10:15 Partly Cloudy 39 4 29 -1.7 67 67 WNW 20 31 29.95 1014 10 16 N/A
10:35 am 10:35 Partly Cloudy 39 4 27 -2.7 62 62 WNW 22 35 29.96 1015 10 16 N/A
10:55 am 10:55 Partly Cloudy 39 3.9 26 -3.4 59 59 NW 24 39 29.98 1015 10 16 N/A
11:15 am 11:15 Partly Cloudy 37 2.5 24 -4.4 61 61 NW 21 33 30.02 1017 10 16 N/A
11:35 am 11:35 Partly Cloudy 36 2.3 24 -4.5 61 61 WNW 20 31 30.02 1017 10 16 N/A
11:55 am 11:55 Cloudy 36 2 23 -5.1 60 60 NW 21 33 30.03 1017 10 16 N/A
12:15 pm 12:15 Cloudy 35 1.9 22 -5.3 59 59 NW 15 24 30.04 1017 10 16 N/A
12:35 pm 12:35 Cloudy 35 1.8 22 -5.6 58 58 NW 20 31 30.04 1017 10 16 N/A
12:55 pm 12:55 Cloudy 35 1.8 21 -6 57 57 WNW 22 35 30.05 1018 10 16 N/A
1:15 pm 13:15 Mostly Cloudy 37 2.7 21 -6 53 53 WNW 16 26 30.05 1018 10 16 N/A
1:35 pm 13:35 Mostly Cloudy 38 3.2 22 -5.3 54 54 WNW 20 31 30.06 1018 10 16 N/A
1:55 pm 13:55 Cloudy 39 3.7 22 -5.4 52 52 WNW 13 20 30.07 1018 10 16 N/A
2:15 pm 14:15 Partly Cloudy 38 3.2 19 -7 48 48 WNW 20 31 30.07 1018 10 16 0.01 0.25
2:35 pm 14:35 Partly Cloudy 38 3.3 20 -6.9 48 48 W 21 33 30.08 1018 10 16 0.01 0.25
2:55 pm 14:55 Partly Cloudy 38 3.3 20 -6.8 48 48 WNW 16 26 30.08 1018 10 16 0.01 0.25
3:15 pm 15:15 Sunny 38 3.1 19 -7.3 47 47 WNW 17 28 30.10 1019 10 16 N/A
3:35 pm 15:35 Sunny 37 2.8 19 -7 49 49 WNW 17 28 30.11 1020 10 16 N/A
3:55 pm 15:55 Sunny 37 2.8 19 -7.3 48 48 WNW 16 26 30.12 1020 10 16 N/A
4:15 pm 16:15 Sunny 37 2.5 20 -6.7 51 51 W 13 20 30.14 1021 10 16 N/A
4:35 pm 16:35 Sunny 36 2.3 19 -7.5 49 49 W 10 17 30.14 1021 10 16 N/A
4:55 pm 16:55 Sunny 36 2 19 -7.1 51 51 W 12 19 30.16 1021 10 16 N/A
5:15 pm 17:15 Clear 35 1.6 19 -7 53 53 W 12 19 30.17 1022 10 16 N/A
5:35 pm 17:35 Clear 34 1.2 19 -7.1 54 54 WNW 9 15 30.18 1022 10 16 N/A
5:55 pm 17:55 Clear 33 0.8 19 -7.2 55 55 W 9 15 30.19 1022 10 16 N/A
6:15 pm 18:15 Clear 33 0.6 19 -7 57 57 W 17 28 30.20 1023 10 16 N/A
6:35 pm 18:35 Clear 33 0.6 18 -7.7 54 54 W 10 17 30.20 1023 10 16 N/A
6:55 pm 18:55 Clear 32 -0.2 19 -7.3 59 59 W 7 11 30.21 1023 10 16 N/A
7:15 pm 19:15 Clear 32 0.1 18 -7.6 57 57 W 7 11 30.22 1023 10 16 N/A
7:35 pm 19:35 Clear 31 -0.7 19 -7.4 61 61 WSW 8 13 30.23 1024 10 16 N/A
7:55 pm 19:55 Mostly Cloudy 32 -0.1 20 -6.7 61 61 W 8 13 30.23 1024 10 16 N/A
8:15 pm 20:15 Cloudy 32 0.1 20 -6.5 62 62 WSW 9 15 30.23 1024 10 16 N/A
8:35 pm 20:35 Cloudy 32 0.1 20 -6.7 61 61 W 10 17 30.24 1024 10 16 N/A
8:55 pm 20:55 Cloudy 33 0.4 20 -6.9 58 58 W 8 13 30.24 1024 10 16 N/A
9:15 pm 21:15 Cloudy 32 0.2 19 -7.1 58 58 NNW 13 20 30.24 1024 10 16 N/A
9:35 pm 21:35 Cloudy 31 -0.7 15 -9.3 53 53 NW 16 26 30.27 1025 10 16 N/A
9:55 pm 21:55 Mostly Cloudy 30 -1.3 14 -10.1 52 52 NW 16 26 30.28 1025 10 16 N/A
10:15 pm 22:15 Partly Cloudy 29 -1.6 13 -10.3 52 52 WNW 15 24 30.30 1026 10 16 N/A
10:35 pm 22:35 Clear 28 -2 12 -10.9 51 51 WNW 15 24 30.30 1026 10 16 N/A
10:55 pm 22:55 Clear 28 -2.5 12 -10.9 53 53 NW 13 20 30.28 1025 10 16 N/A
11:15 pm 23:15 Clear 27 -2.9 11 -11.7 51 51 NNW 9 15 30.28 1026 10 16 N/A
11:35 pm 23:35 Clear 26 -3.4 9 -12.6 49 49 NNW 8 13 30.27 1025 10 16 N/A
11:55 pm 23:55 Clear 26 -3.6 8 -13.6 46 46 NW 9 15 30.29 1026 10 16 N/A

Powered by AerisWeather